Location: Alberta Star Party
(51.6612°N, 112.9089°W)
Time: 17:08:23
(UTC-07:00)

Amateur Radio Satellites - All Passes

Search period start: 22 December 2014 16:38
Search period end: 23 December 2014 16:38
Location: Alberta Star Party, 51.6612°N, 112.9089°W

Satellite Date Start Highest point End Downlink Frequencies (MHz)
Time Altitude Azimuth
MOZHAYETS 4 22 Dec 16:44:40 16:48:31 25° 92° (E) 16:52:19
BEESAT 3 22 Dec 16:46:21 16:48:54 16° 347° (NNW) 16:51:27 437.485
STARS 22 Dec 16:48:07 16:51:52 27° 298° (WNW) 16:55:37 437.465
KKS-1 22 Dec 16:57:09 17:00:11 18° 303° (WNW) 17:03:14 437.445
GONETS M04 22 Dec 16:58:41 17:07:32 89° 261° (W) 17:16:16
AIST 2 22 Dec 17:05:17 17:08:16 18° 342° (NNW) 17:11:16 435.215
JAS-2 22 Dec 17:06:00 17:13:23 61° 259° (W) 17:20:01 435.910
Cubesat XI-IV 22 Dec 17:22:35 17:27:49 60° 69° (ENE) 17:33:04 437.490
PCSat 22 Dec 17:24:45 17:28:29 18° 344° (NNW) 17:32:13 145.827
BEESAT 2 22 Dec 17:29:18 17:31:32 14° 356° (N) 17:33:45 435.950
AO-7 22 Dec 17:36:37 17:42:40 22° 273° (W) 17:48:47 29.400- 29.500
CUTE-I 22 Dec 17:55:07 18:00:26 81° 255° (WSW) 18:05:48 437.470
CUSAT 1 22 Dec 17:56:05 18:00:26 16° 48° (NE) 18:05:06 437.405
MaSat-1 22 Dec 18:09:19 18:11:19 24° 244° (WSW) 18:13:23 437.345
ISS 22 Dec 18:09:59 18:13:14 57° 199° (SSW) 18:16:27 145.825
CUBESAT XI-V 22 Dec 18:14:33 18:17:38 18° 89° (E) 18:20:43 437.345
AIST 1 22 Dec 18:15:46 18:18:52 19° 296° (WNW) 18:21:57
PRISM 22 Dec 18:15:58 18:19:37 28° 95° (E) 18:23:13 437.425
MOZHAYETS 4 22 Dec 18:21:31 18:25:59 48° 291° (WNW) 18:30:24
BEESAT 3 22 Dec 18:26:15 18:28:40 15° 11° (N) 18:31:05 437.485
RS-15 22 Dec 18:32:05 18:42:55 54° 27° (NNE) 18:54:08 29.354- 29.394
CANX-2 22 Dec 18:38:56 18:40:03 11° 53° (NE) 18:41:10 2200.000
HO-68 22 Dec 18:41:05 18:47:02 29° 51° (NE) 18:52:58 435.675
AIST 2 22 Dec 18:46:01 18:48:29 15° 7° (N) 18:50:57 435.215
BRITE-PL 22 Dec 18:47:53 18:49:39 13° 54° (NE) 18:51:26 437.365/2234.400
COMPASS 1 22 Dec 18:54:23 18:55:12 11° 52° (NE) 18:56:01 437.405
JAS-2 22 Dec 18:56:15 18:59:36 14° 278° (W) 19:02:50 435.910
GONETS M04 22 Dec 18:56:39 19:03:11 24° 284° (WNW) 19:09:42
DANDE 22 Dec 18:58:10 19:04:30 30° 60° (ENE) 19:11:40 436.750
SEEDS 22 Dec 19:01:34 19:03:47 14° 56° (NE) 19:06:01 437.485
GOMX 1 22 Dec 19:02:33 19:04:27 13° 54° (NE) 19:06:23 467.674
Cubesat XI-IV 22 Dec 19:03:58 19:08:18 25° 268° (W) 19:12:40 437.490
CUTE 1.7 + AOD 2 22 Dec 19:07:23 19:10:14 18° 58° (ENE) 19:13:05 437.475
BEESAT 2 22 Dec 19:08:21 19:11:19 18° 20° (NNE) 19:14:17 435.950
PCSat 22 Dec 19:10:31 19:14:01 17° 11° (N) 19:17:31 145.827
DOVE 4 22 Dec 19:16:54 19:18:59 14° 54° (NE) 19:21:06 437.250
STRAND 1 22 Dec 19:18:51 19:23:50 51° 100° (E) 19:28:47 437.568
CINEMA 3 22 Dec 19:26:03 19:27:13 11° 51° (NE) 19:28:24 145.822/145.860
DX 1 22 Dec 19:35:17 19:36:40 11° 52° (NE) 19:38:04 434.975-435.025
CUSAT 1 22 Dec 19:37:53 19:45:12 51° 69° (ENE) 19:53:25 437.405
CUTE-I 22 Dec 19:38:37 19:41:23 14° 275° (W) 19:44:09 437.470
ISS 22 Dec 19:47:11 19:49:19 16° 218° (SW) 19:51:27 145.825
AAUSAT CUBESAT 2 22 Dec 19:49:35 19:53:08 27° 64° (ENE) 19:56:43 437.432
CUBESAT XI-V 22 Dec 19:50:59 19:55:35 69° 288° (WNW) 20:00:09 437.345
PRISM 22 Dec 19:51:24 19:55:13 35° 294° (WNW) 19:58:59 437.425
Oscar 11 22 Dec 19:51:47 19:54:42 18° 58° (ENE) 19:57:38 145.826/435.025
UKube-1 22 Dec 20:01:53 20:04:49 18° 57° (ENE) 20:07:46 .
BEESAT 3 22 Dec 20:04:15 20:08:03 32° 34° (NE) 20:11:49 437.485
CANX-2 22 Dec 20:10:55 20:15:09 65° 72° (ENE) 20:19:27 2200.000
BRITE-PL 22 Dec 20:23:22 20:27:30 85° 75° (ENE) 20:31:44 437.365/2234.400
AIST 2 22 Dec 20:24:43 20:28:27 27° 30° (NNE) 20:32:10 435.215
COMPASS 1 22 Dec 20:25:54 20:30:05 63° 72° (ENE) 20:34:19 437.405
HO-68 22 Dec 20:26:54 20:34:06 81° 253° (WSW) 20:41:21 435.675
CUBEBUG 2 22 Dec 20:27:36 20:31:00 24° 61° (ENE) 20:34:30 437.445
ZACube-1 22 Dec 20:28:15 20:31:15 19° 59° (ENE) 20:34:19 437.345
DELFI C3 22 Dec 20:28:31 20:32:05 29° 65° (ENE) 20:35:40 145.870
50 SAT 22 Dec 20:31:45 20:32:36 11° 53° (NE) 20:33:27 437.505
SEEDS 22 Dec 20:34:42 20:38:59 88° 75° (ENE) 20:43:18 437.485
GOMX 1 22 Dec 20:37:46 20:41:54 85° 75° (ENE) 20:46:12 467.674
VELOX 1 22 Dec 20:38:47 20:41:31 16° 56° (NE) 20:44:15 145.980
DANDE 22 Dec 20:41:11 20:48:44 86° 259° (W) 20:57:26 436.750
CUTE 1.7 + AOD 2 22 Dec 20:41:24 20:45:41 71° 258° (WSW) 20:50:01 437.475
RS-15 22 Dec 20:44:57 20:56:04 75° 235° (SW) 21:07:42 29.354- 29.394
BEESAT 2 22 Dec 20:46:18 20:50:27 53° 42° (NE) 20:54:33 435.950
DOVE 4 22 Dec 20:51:56 20:56:06 88° 74° (ENE) 21:00:26 437.250
ESTCUBE 1 22 Dec 20:51:58 20:53:05 11° 51° (NE) 20:54:13 437.505/2401.250
FUNcube-1 22 Dec 20:53:21 20:57:03 30° 64° (ENE) 21:00:50 145.935
PCSat 22 Dec 20:54:08 20:59:05 34° 36° (NE) 21:04:00 145.827
STRAND 1 22 Dec 20:58:28 21:02:48 29° 300° (WNW) 21:07:08 437.568
CINEMA 3 22 Dec 20:59:24 21:03:34 66° 72° (ENE) 21:07:55 145.822/145.860
UWE-3 22 Dec 21:00:00 21:03:57 39° 67° (ENE) 21:08:01 435.000/436.395/437.385
DX 1 22 Dec 21:07:49 21:12:07 66° 71° (ENE) 21:16:27 434.975-435.025
HUMSAT D 22 Dec 21:09:45 21:13:16 27° 63° (ENE) 21:16:50 437.325/437.525
CUBEBUG 1 22 Dec 21:20:24 21:23:06 16° 57° (ENE) 21:25:49 437.445
CUSAT 1 22 Dec 21:21:06 21:28:22 50° 267° (W) 21:36:26 437.405
AISAT 22 Dec 21:21:45 21:25:46 36° 65° (ENE) 21:29:49 437.250
AAUSAT CUBESAT 2 22 Dec 21:24:41 21:28:40 40° 263° (W) 21:32:42 437.432
SO-50 22 Dec 21:25:11 21:29:41 60° 126° (SE) 21:34:21 436.795
Oscar 11 22 Dec 21:26:04 21:30:24 71° 257° (WSW) 21:34:47 145.826/435.025
CUBESAT XI-V 22 Dec 21:30:18 21:32:12 12° 308° (NW) 21:34:06 437.345
UKube-1 22 Dec 21:36:12 21:40:32 70° 256° (WSW) 21:44:53 .
BEESAT 3 22 Dec 21:42:22 21:46:27 53° 235° (SW) 21:50:29 437.485
CANX-2 22 Dec 21:48:45 21:51:33 17° 271° (W) 21:54:22 2200.000
ZACube-1 22 Dec 22:03:01 22:07:13 63° 259° (WSW) 22:11:32 437.345
50 SAT 22 Dec 22:03:01 22:07:02 69° 73° (ENE) 22:11:07 437.505
AIST 2 22 Dec 22:03:11 22:07:30 73° 231° (SW) 22:11:45 435.215
CUBEBUG 2 22 Dec 22:03:23 22:07:28 47° 261° (W) 22:11:42 437.445
COMPASS 1 22 Dec 22:03:27 22:06:14 17° 271° (W) 22:09:03 437.405
DELFI C3 22 Dec 22:03:28 22:07:16 35° 263° (W) 22:11:06 145.870
BRITE-PL 22 Dec 22:05:17 22:06:45 12° 274° (W) 22:08:14 437.365/2234.400
TIGRISAT 22 Dec 22:06:38 22:09:38 17° 88° (E) 22:12:38 435.000
TISAT 1 22 Dec 22:07:47 22:09:50 14° 55° (NE) 22:11:53 437.305
VELOX 1 22 Dec 22:13:07 22:17:33 82° 255° (WSW) 22:22:00 145.980
SEEDS 22 Dec 22:13:41 22:15:28 12° 274° (W) 22:17:15 437.485
HO-68 22 Dec 22:18:02 22:22:56 19° 274° (W) 22:27:52 435.675
YUBILEINY 22 Dec 22:18:09 22:23:49 20° 73° (ENE) 22:29:27 435.215
SPROUT 22 Dec 22:18:38 22:21:12 16° 57° (ENE) 22:23:47 437.525
GOMX 1 22 Dec 22:19:15 22:20:47 12° 275° (W) 22:22:19 467.674
QB50P2 22 Dec 22:22:21 22:24:39 14° 88° (E) 22:26:57 145.880/145.840
ESTCUBE 1 22 Dec 22:24:37 22:29:04 59° 70° (ENE) 22:33:32 437.505/2401.250
BEESAT 2 22 Dec 22:24:57 22:28:29 26° 242° (WSW) 22:31:58 435.950
DANDE 22 Dec 22:25:38 22:31:32 25° 277° (W) 22:38:01 436.750
FUNcube-1 22 Dec 22:29:27 22:33:20 36° 264° (W) 22:37:21 145.935
POLYITAN 1 22 Dec 22:31:39 22:34:32 17° 90° (E) 22:37:24 437.675
NANOSAT C BR1 22 Dec 22:31:40 22:34:29 17° 90° (E) 22:37:17 145.865
DOVE 4 22 Dec 22:33:12 22:34:38 12° 275° (W) 22:36:05 437.250
UNISAT 6 22 Dec 22:36:22 22:40:32 30° 94° (E) 22:44:41 437.425
UWE-3 22 Dec 22:37:02 22:40:38 27° 267° (W) 22:44:21 435.000/436.395/437.385
PCSat 22 Dec 22:37:30 22:42:54 66° 238° (WSW) 22:48:15 145.827
CINEMA 3 22 Dec 22:38:42 22:41:19 16° 272° (W) 22:44:00 145.822/145.860
HUMSAT D 22 Dec 22:45:02 22:48:56 39° 263° (W) 22:52:56 437.325/437.525
DX 1 22 Dec 22:45:59 22:48:49 17° 270° (W) 22:51:39 434.975-435.025
QB50P1 22 Dec 22:46:06 22:49:32 23° 93° (E) 22:52:56 145.935-145.965
CUBEBUG 1 22 Dec 22:54:36 22:58:57 79° 256° (WSW) 23:03:20 437.445
RS-15 22 Dec 22:58:29 23:06:36 24° 260° (W) 23:14:58 29.354- 29.394
AISAT 22 Dec 22:58:30 23:02:27 31° 264° (W) 23:06:25 437.250
SO-50 22 Dec 23:06:16 23:10:31 34° 328° (NNW) 23:14:55 436.795
CUSAT 1 22 Dec 23:07:08 23:09:59 12° 286° (WNW) 23:12:57 437.405
ANTELSAT 22 Dec 23:08:17 23:12:57 56° 100° (E) 23:17:37 437.575/2403.000
POPSAT HIP 1 22 Dec 23:14:45 23:18:49 41° 98° (E) 23:22:52 437.405
BUGSAT 1 22 Dec 23:28:13 23:32:08 45° 99° (E) 23:36:03 437.445
50 SAT 22 Dec 23:40:28 23:42:44 15° 272° (W) 23:45:01 437.505
TISAT 1 22 Dec 23:40:49 23:45:02 86° 74° (ENE) 23:49:16 437.305
DUCHIFAT 1 22 Dec 23:41:20 23:45:37 75° 104° (ESE) 23:49:52 145.980
TIGRISAT 22 Dec 23:42:13 23:46:55 77° 287° (WNW) 23:51:39 435.000
AIST 2 22 Dec 23:43:51 23:45:21 12° 251° (WSW) 23:46:50 435.215
SPROUT 22 Dec 23:52:28 23:56:45 80° 256° (WSW) 00:01:04 437.525
AUBIESAT-1 22 Dec 23:53:23 23:57:01 21° 51° (NE) 00:00:36 437.475
VELOX 1 22 Dec 23:53:29 23:54:52 11° 274° (W) 23:56:15 145.980
QB50P2 22 Dec 23:56:50 00:01:07 77° 286° (WNW) 00:05:24 145.880/145.840
SWISSCUBE 23 Dec 00:00:43 00:04:57 32° 63° (ENE) 00:09:11 437.505
ITUPSAT 1 23 Dec 00:02:20 00:06:30 30° 62° (ENE) 00:10:41 437.325
ESTCUBE 1 23 Dec 00:02:59 00:06:19 20° 269° (W) 00:09:41 437.505/2401.250
NANOSAT C BR1 23 Dec 00:06:33 00:10:47 64° 288° (WNW) 00:15:00 145.865
POLYITAN 1 23 Dec 00:06:38 00:10:53 63° 289° (WNW) 00:15:08 437.675
YUBILEINY 23 Dec 00:10:26 00:19:07 76° 96° (E) 00:27:49 435.215
O/OREOS (USA 219) 23 Dec 00:11:31 00:15:15 27° 105° (ESE) 00:19:00 437.305
UNISAT 6 23 Dec 00:13:00 00:17:26 42° 293° (WNW) 00:21:53 437.425
M-CUBED/EXP-1 PRIME 23 Dec 00:19:57 00:24:21 34° 58° (ENE) 00:28:43 437.505
QB50P1 23 Dec 00:21:33 00:25:39 46° 291° (WNW) 00:29:44 145.935-145.965
PCSat 23 Dec 00:23:10 00:25:17 12° 258° (WSW) 00:27:25 145.827
BEESAT 23 Dec 00:24:45 00:29:19 46° 67° (ENE) 00:33:54 436.000
CUBEBUG 1 23 Dec 00:35:10 00:36:05 11° 275° (W) 00:37:00 437.445
STARS 23 Dec 00:40:19 00:42:16 13° 53° (NE) 00:44:14 437.465
ANTELSAT 23 Dec 00:45:40 00:49:27 24° 299° (WNW) 00:53:14 437.575/2403.000
KKS-1 23 Dec 00:48:07 00:51:20 20° 58° (ENE) 00:54:33 437.445
SO-50 23 Dec 00:49:06 00:52:24 18° 352° (N) 00:55:46 436.795
POPSAT HIP 1 23 Dec 00:50:59 00:54:34 26° 297° (WNW) 00:58:08 437.405
BUGSAT 1 23 Dec 01:04:13 01:07:25 23° 298° (WNW) 01:10:38 437.445
DUCHIFAT 1 23 Dec 01:18:17 01:20:59 17° 303° (WNW) 01:23:41 145.980
TISAT 1 23 Dec 01:19:45 01:21:29 12° 273° (W) 01:23:13 437.305
TIGRISAT 23 Dec 01:20:28 01:22:56 14° 306° (NW) 01:25:25 435.000
AUBIESAT-1 23 Dec 01:26:33 01:31:27 80° 250° (WSW) 01:36:20 437.475
SPROUT 23 Dec 01:32:46 01:33:35 10° 275° (W) 01:34:25 437.525
QB50P2 23 Dec 01:34:30 01:36:20 13° 306° (NW) 01:38:10 145.880/145.840
SWISSCUBE 23 Dec 01:38:10 01:42:43 42° 262° (W) 01:47:17 437.505
ITUPSAT 1 23 Dec 01:39:41 01:44:16 44° 261° (W) 01:48:53 437.325
NANOSAT C BR1 23 Dec 01:44:57 01:45:51 11° 308° (NW) 01:46:45 145.865
POLYITAN 1 23 Dec 01:45:05 01:46:01 11° 308° (NW) 01:46:56 437.675
O/OREOS (USA 219) 23 Dec 01:50:09 01:54:27 46° 305° (NW) 01:58:47 437.305
M-CUBED/EXP-1 PRIME 23 Dec 01:54:32 01:59:13 44° 256° (WSW) 02:03:55 437.505
Oscar 19 23 Dec 01:56:06 02:01:12 52° 100° (E) 02:06:16 437.125/150
BEESAT 23 Dec 02:03:14 02:07:21 28° 266° (W) 02:11:29 436.000
YUBILEINY 23 Dec 02:09:13 02:16:50 33° 300° (WNW) 02:24:30 435.215
STARS 23 Dec 02:13:38 02:18:00 75° 73° (ENE) 02:22:26 437.465
ITAMSAT 1 23 Dec 02:17:56 02:22:36 33° 95° (E) 02:27:14 435.822/435.867
KKS-1 23 Dec 02:23:10 02:27:34 64° 258° (WSW) 02:32:00 437.445
Gurwin Techsat 1B 23 Dec 02:28:34 02:33:07 28° 93° (E) 02:37:37 435.225
SO-50 23 Dec 02:30:54 02:34:36 21° 17° (NNE) 02:38:19 436.795
AIST 1 23 Dec 02:38:28 02:42:10 27° 68° (ENE) 02:45:50
AUBIESAT-1 23 Dec 03:04:37 03:07:05 14° 268° (W) 03:09:32 437.475
O/OREOS (USA 219) 23 Dec 03:33:25 03:35:03 12° 328° (NNW) 03:36:41 437.305
Oscar 19 23 Dec 03:35:51 03:40:20 30° 300° (WNW) 03:44:47 437.125/150
AO-7 23 Dec 03:36:15 03:42:54 25° 90° (E) 03:49:30 29.400- 29.500
HORYU 2 23 Dec 03:41:12 03:45:34 45° 99° (E) 03:49:54 437.375
MOZHAYETS 4 23 Dec 03:51:44 03:56:08 44° 68° (ENE) 04:00:34
STARS 23 Dec 03:52:30 03:55:02 15° 272° (W) 03:57:36 437.465
ITAMSAT 1 23 Dec 03:57:20 04:02:14 44° 295° (WNW) 04:07:07 435.822/435.867
Gurwin Techsat 1B 23 Dec 04:08:12 04:13:23 54° 292° (WNW) 04:18:32 435.225
SO-50 23 Dec 04:11:24 04:16:10 52° 40° (NE) 04:20:58 436.795
JAS-2 23 Dec 04:12:06 04:14:48 14° 82° (E) 04:17:24 435.910
GONETS M04 23 Dec 04:12:30 04:18:57 23° 75° (ENE) 04:25:22
AIST 1 23 Dec 04:15:59 04:19:55 36° 268° (W) 04:23:49
VERMONT LUNAR 23 Dec 04:39:41 04:41:34 14° 179° (S) 04:43:26 437.305
STRAND 1 23 Dec 05:02:35 05:06:35 24° 57° (ENE) 05:10:35 437.568
PHONESAT 2.4 23 Dec 05:06:55 05:08:57 14° 179° (S) 05:10:59 2401.200-2431.200
PRISM 23 Dec 05:11:41 05:15:43 45° 68° (ENE) 05:19:45 437.425
HORYU 2 23 Dec 05:18:15 05:22:03 27° 298° (WNW) 05:25:51 437.375
CUBESAT XI-V 23 Dec 05:23:00 05:27:07 32° 64° (ENE) 05:31:14 437.345
AO-7 23 Dec 05:28:21 05:36:47 90° 292° (WNW) 05:45:10 29.400- 29.500
MOZHAYETS 4 23 Dec 05:29:32 05:33:32 28° 267° (W) 05:37:33
Cubesat XI-IV 23 Dec 05:35:35 05:38:41 16° 86° (E) 05:41:47 437.490
Gurwin Techsat 1B 23 Dec 05:50:17 05:52:15 12° 313° (NW) 05:54:13 435.225
SO-50 23 Dec 05:52:11 05:56:37 35° 240° (WSW) 06:01:04 436.795
JAS-2 23 Dec 05:55:19 06:01:07 81° 105° (ESE) 06:06:22 435.910
GONETS M04 23 Dec 06:05:40 06:14:32 86° 98° (E) 06:23:24
CUTE-I 23 Dec 06:07:06 06:11:35 27° 93° (E) 06:16:03 437.470
STRAND 1 23 Dec 06:40:18 06:45:22 66° 257° (WSW) 06:50:29 437.568
PHONESAT 2.4 23 Dec 06:46:03 06:46:42 10° 197° (SSW) 06:47:21 2401.200-2431.200
PRISM 23 Dec 06:48:04 06:51:27 23° 267° (W) 06:54:51 437.425
CUBESAT XI-V 23 Dec 07:00:09 07:04:30 39° 263° (W) 07:08:52 437.345
Cubesat XI-IV 23 Dec 07:14:13 07:19:35 87° 106° (ESE) 07:24:55 437.490
AO-7 23 Dec 07:21:46 07:28:43 31° 314° (NW) 07:35:38 29.400- 29.500
JAS-2 23 Dec 07:41:19 07:45:31 21° 308° (NW) 07:49:28 435.910
CUTE-I 23 Dec 07:46:48 07:51:59 55° 292° (WNW) 07:57:10 437.470
HO-68 23 Dec 07:50:30 07:54:14 15° 83° (E) 07:57:57 435.675
GONETS M04 23 Dec 08:05:09 08:12:33 29° 303° (WNW) 08:20:00
SEEDS 23 Dec 08:16:26 08:17:39 11° 85° (E) 08:18:52 437.485
YUBILEINY 23 Dec 08:18:03 08:22:50 15° 42° (NE) 08:27:35 435.215
BRITE-PL 23 Dec 08:22:20 08:25:45 19° 90° (E) 08:29:19 437.365/2234.400
CUTE 1.7 + AOD 2 23 Dec 08:22:47 08:25:16 15° 88° (E) 08:27:44 437.475
DANDE 23 Dec 08:23:03 08:24:20 11° 73° (ENE) 08:25:43 436.750
STRAND 1 23 Dec 08:24:28 08:25:35 11° 277° (W) 08:26:41 437.568
GOMX 1 23 Dec 08:34:03 08:37:25 19° 90° (E) 08:40:55 467.674
O/OREOS (USA 219) 23 Dec 08:36:18 08:40:00 24° 46° (NE) 08:43:42 437.305
ANTELSAT 23 Dec 08:38:27 08:41:07 16° 55° (NE) 08:43:50 437.575/2403.000
POPSAT HIP 1 23 Dec 08:41:15 08:42:03 11° 52° (NE) 08:42:52 437.405
DOVE 4 23 Dec 08:45:47 08:49:06 18° 89° (E) 08:52:32 437.250
CINEMA 3 23 Dec 08:50:16 08:52:21 13° 85° (E) 08:54:28 145.822/145.860
BUGSAT 1 23 Dec 08:52:30 08:53:00 10° 53° (NE) 08:53:30 437.445
Cubesat XI-IV 23 Dec 08:55:19 08:59:03 20° 306° (NW) 09:02:46 437.490
CUSAT 1 23 Dec 08:56:31 09:00:13 27° 84° (E) 09:04:54 437.405
MaSat-1 23 Dec 09:02:40 09:04:52 75° 119° (ESE) 09:07:03 437.345
AAUSAT CUBESAT 2 23 Dec 09:03:04 09:06:31 23° 92° (E) 09:09:55 437.432
DUCHIFAT 1 23 Dec 09:05:31 09:08:12 17° 58° (ENE) 09:10:53 145.980
Oscar 11 23 Dec 09:09:18 09:11:54 15° 88° (E) 09:14:29 145.826/435.025
TIGRISAT 23 Dec 09:10:41 09:14:24 27° 62° (ENE) 09:18:13 435.000
AO-7 23 Dec 09:15:37 09:18:54 13° 340° (NNW) 09:22:10 29.400- 29.500
UKube-1 23 Dec 09:20:08 09:22:22 14° 88° (E) 09:24:34 .
QB50P2 23 Dec 09:20:34 09:23:51 23° 61° (ENE) 09:27:10 145.880/145.840
CANX-2 23 Dec 09:26:57 09:31:17 62° 101° (ESE) 09:35:33 2200.000
CUTE-I 23 Dec 09:28:51 09:31:00 13° 313° (NW) 09:33:09 437.470
NANOSAT C BR1 23 Dec 09:29:43 09:33:13 26° 63° (ENE) 09:36:45 145.865
POLYITAN 1 23 Dec 09:30:10 09:33:43 27° 63° (ENE) 09:37:17 437.675
HO-68 23 Dec 09:36:14 09:43:23 66° 104° (ESE) 09:50:28 435.675
DELFI C3 23 Dec 09:38:49 09:42:09 23° 93° (E) 09:45:27 145.870
COMPASS 1 23 Dec 09:40:09 09:44:23 58° 101° (E) 09:48:35 437.405
UNISAT 6 23 Dec 09:40:47 09:45:03 48° 68° (ENE) 09:49:27 437.425
QB50P1 23 Dec 09:44:17 09:48:06 35° 66° (ENE) 09:51:57 145.935-145.965
ZACube-1 23 Dec 09:47:01 09:50:16 19° 90° (E) 09:53:32 437.345
CUBEBUG 2 23 Dec 09:49:06 09:53:02 26° 93° (E) 09:57:00 437.445
SEEDS 23 Dec 09:49:52 09:54:12 83° 104° (ESE) 09:58:29 437.485
CUTE 1.7 + AOD 2 23 Dec 09:57:23 10:01:44 74° 287° (WNW) 10:06:01 437.475
BRITE-PL 23 Dec 10:00:00 10:04:39 68° 288° (WNW) 10:09:41 437.365/2234.400
VELOX 1 23 Dec 10:00:07 10:02:18 13° 87° (E) 10:04:29 145.980
DANDE 23 Dec 10:02:09 10:06:14 81° 100° (E) 10:11:55 436.750
GOMX 1 23 Dec 10:11:15 10:15:58 72° 287° (WNW) 10:21:02 467.674
FUNcube-1 23 Dec 10:12:18 10:16:20 31° 95° (E) 10:20:24 145.935
ANTELSAT 23 Dec 10:12:49 10:17:16 89° 255° (WSW) 10:21:52 437.575/2403.000
POPSAT HIP 1 23 Dec 10:12:59 10:17:08 64° 72° (ENE) 10:21:20 437.405
YUBILEINY 23 Dec 10:13:49 10:22:16 51° 69° (ENE) 10:30:41 435.215
O/OREOS (USA 219) 23 Dec 10:15:19 10:19:47 61° 246° (WSW) 10:24:15 437.305
UWE-3 23 Dec 10:20:38 10:25:02 43° 98° (E) 10:29:29 435.000/436.395/437.385
DOVE 4 23 Dec 10:22:35 10:27:20 73° 287° (WNW) 10:32:21 437.250
BUGSAT 1 23 Dec 10:23:42 10:27:44 66° 72° (ENE) 10:31:46 437.445
HUMSAT D 23 Dec 10:24:16 10:27:51 25° 93° (E) 10:31:25 437.325/437.525
CINEMA 3 23 Dec 10:25:30 10:30:16 80° 104° (ESE) 10:35:12 145.822/145.860
DX 1 23 Dec 10:27:03 10:31:21 57° 102° (ESE) 10:35:38 434.975-435.025
AAUSAT CUBESAT 2 23 Dec 10:38:19 10:42:23 45° 291° (WNW) 10:46:25 437.432
CUSAT 1 23 Dec 10:38:39 10:42:53 45° 294° (WNW) 10:48:35 437.405
DUCHIFAT 1 23 Dec 10:39:23 10:43:34 73° 257° (WSW) 10:47:48 145.980
CUBEBUG 1 23 Dec 10:39:48 10:41:59 14° 87° (E) 10:44:09 437.445
AISAT 23 Dec 10:43:45 10:47:49 33° 96° (E) 10:51:51 437.250
Oscar 11 23 Dec 10:44:13 10:48:36 74° 287° (WNW) 10:52:57 145.826/435.025
TIGRISAT 23 Dec 10:46:44 10:50:58 45° 262° (W) 10:55:20 435.000
UKube-1 23 Dec 10:54:45 10:59:07 81° 286° (WNW) 11:03:27 .
QB50P2 23 Dec 10:55:24 10:59:30 50° 260° (W) 11:03:39 145.880/145.840
CANX-2 23 Dec 11:03:43 11:06:49 20° 300° (WNW) 11:09:55 2200.000
NANOSAT C BR1 23 Dec 11:04:58 11:08:57 41° 262° (W) 11:12:58 145.865
POLYITAN 1 23 Dec 11:05:33 11:09:31 40° 262° (W) 11:13:33 437.675
AO-7 23 Dec 11:06:56 11:08:05 10° 8° (N) 11:09:13 29.400- 29.500
50 SAT 23 Dec 11:13:00 11:17:06 56° 101° (E) 11:21:12 437.505
DELFI C3 23 Dec 11:13:41 11:17:36 43° 291° (WNW) 11:21:30 145.870
RS-15 23 Dec 11:15:30 11:25:19 41° 111° (ESE) 11:35:12 29.354- 29.394
COMPASS 1 23 Dec 11:16:37 11:19:45 20° 300° (WNW) 11:22:53 437.405
UNISAT 6 23 Dec 11:18:30 11:22:06 24° 268° (W) 11:25:48 437.425
QB50P1 23 Dec 11:20:20 11:24:03 30° 265° (W) 11:27:47 145.935-145.965
ZACube-1 23 Dec 11:22:33 11:27:03 64° 288° (WNW) 11:31:35 437.345
HO-68 23 Dec 11:24:25 11:30:44 35° 305° (NW) 11:37:01 435.675
CUBEBUG 2 23 Dec 11:25:29 11:29:55 47° 291° (WNW) 11:34:27 437.445
SEEDS 23 Dec 11:26:57 11:29:28 15° 303° (WNW) 11:31:58 437.485
VELOX 1 23 Dec 11:35:03 11:39:31 85° 286° (WNW) 11:43:57 145.980
CUTE 1.7 + AOD 2 23 Dec 11:35:10 11:36:55 12° 306° (NW) 11:38:40 437.475
SPROUT 23 Dec 11:35:33 11:37:34 13° 87° (E) 11:39:34 437.525
BRITE-PL 23 Dec 11:40:28 11:42:28 13° 306° (NW) 11:44:32 437.365/2234.400
Oscar 19 23 Dec 11:40:41 11:44:43 24° 57° (ENE) 11:48:47 437.125/150
DANDE 23 Dec 11:47:41 11:50:53 18° 310° (NW) 11:54:44 436.750
FUNcube-1 23 Dec 11:48:33 11:52:45 39° 293° (WNW) 11:57:00 145.935
ESTCUBE 1 23 Dec 11:48:50 11:53:19 61° 102° (ESE) 11:57:45 437.505/2401.250
POPSAT HIP 1 23 Dec 11:50:47 11:53:29 17° 271° (W) 11:56:12 437.405
GOMX 1 23 Dec 11:51:07 11:53:25 14° 306° (NW) 11:55:46 467.674
ANTELSAT 23 Dec 11:52:50 11:54:49 13° 275° (W) 11:56:48 437.575/2403.000
UWE-3 23 Dec 11:57:29 12:01:27 30° 296° (WNW) 12:05:28 435.000/436.395/437.385
HUMSAT D 23 Dec 11:59:42 12:03:50 44° 291° (WNW) 12:07:58 437.325/437.525
BUGSAT 1 23 Dec 12:01:20 12:03:42 15° 271° (W) 12:06:03 437.445
DOVE 4 23 Dec 12:02:00 12:04:24 14° 305° (NW) 12:06:52 437.250
CINEMA 3 23 Dec 12:03:45 12:06:59 19° 302° (WNW) 12:10:16 145.822/145.860
DX 1 23 Dec 12:03:59 12:07:16 21° 301° (WNW) 12:10:32 434.975-435.025
ITAMSAT 1 23 Dec 12:04:22 12:07:39 17° 52° (NE) 12:10:56 435.822/435.867
YUBILEINY 23 Dec 12:10:56 12:19:04 47° 273° (W) 12:27:12 435.215
CUBEBUG 1 23 Dec 12:14:36 12:18:57 82° 286° (WNW) 12:23:18 437.445
Gurwin Techsat 1B 23 Dec 12:18:05 12:21:05 15° 51° (NE) 12:24:04 435.225
AISAT 23 Dec 12:20:26 12:24:27 34° 295° (WNW) 12:28:27 437.250
Oscar 11 23 Dec 12:22:14 12:24:01 12° 307° (NW) 12:25:49 145.826/435.025
BEESAT 2 23 Dec 12:25:53 12:28:30 16° 113° (ESE) 12:31:08 435.950
CUSAT 1 23 Dec 12:27:09 12:28:08 10° 322° (NW) 12:29:11 437.405
UKube-1 23 Dec 12:32:28 12:34:36 14° 306° (NW) 12:36:43 .
50 SAT 23 Dec 12:48:56 12:51:58 20° 300° (WNW) 12:55:01 437.505
AO-7 23 Dec 12:52:07 12:57:42 20° 35° (NE) 13:03:17 29.400- 29.500
TISAT 1 23 Dec 12:56:13 13:00:28 76° 104° (ESE) 13:04:42 437.305
ZACube-1 23 Dec 13:01:04 13:02:35 12° 308° (NW) 13:04:07 437.345
SPROUT 23 Dec 13:09:56 13:14:16 85° 286° (WNW) 13:18:35 437.525
HORYU 2 23 Dec 13:11:01 13:13:22 14° 54° (NE) 13:15:45 437.375
VELOX 1 23 Dec 13:13:05 13:15:27 14° 306° (NW) 13:17:49 145.980
HO-68 23 Dec 13:14:16 13:16:27 12° 329° (NNW) 13:18:38 435.675
Oscar 19 23 Dec 13:18:31 13:23:38 68° 257° (WSW) 13:28:50 437.125/150
BEESAT 3 23 Dec 13:19:20 13:23:19 50° 125° (SE) 13:27:22 437.485
PCSat 23 Dec 13:24:35 13:29:31 38° 115° (ESE) 13:34:30 145.827
RS-15 23 Dec 13:26:00 13:36:56 76° 317° (NW) 13:48:05 29.354- 29.394
ESTCUBE 1 23 Dec 13:26:27 13:29:49 21° 301° (WNW) 13:33:11 437.505/2401.250
SWISSCUBE 23 Dec 13:33:02 13:37:24 34° 96° (E) 13:41:43 437.505
ITUPSAT 1 23 Dec 13:34:52 13:39:11 33° 96° (E) 13:43:27 437.325
ITAMSAT 1 23 Dec 13:41:14 13:46:25 83° 73° (ENE) 13:51:38 435.822/435.867
AIST 2 23 Dec 13:44:39 13:48:39 41° 122° (ESE) 13:52:43 435.215
CUBEBUG 1 23 Dec 13:52:33 13:54:39 13° 306° (NW) 13:56:45 437.445
Gurwin Techsat 1B 23 Dec 13:54:54 14:00:11 71° 71° (ENE) 14:05:30 435.225
BEESAT 23 Dec 13:57:13 14:01:53 51° 100° (E) 14:06:31 436.000
BEESAT 2 23 Dec 14:02:03 14:06:12 81° 313° (NW) 14:10:26 435.950
ISS 23 Dec 14:06:18 14:09:25 39° 154° (SSE) 14:12:32 145.825
KKS-1 23 Dec 14:09:53 14:12:54 18° 90° (E) 14:15:55 437.445
YUBILEINY 23 Dec 14:12:35 14:13:29 10° 297° (WNW) 14:14:22 435.215
GONETS M04 23 Dec 14:13:15 14:18:51 18° 45° (NE) 14:24:23
JAS-2 23 Dec 14:29:36 14:34:14 19° 50° (NE) 14:38:34 435.910
TISAT 1 23 Dec 14:33:09 14:35:48 16° 303° (WNW) 14:38:26 437.305
AUBIESAT-1 23 Dec 14:39:37 14:43:38 35° 102° (ESE) 14:47:19 437.475
AO-7 23 Dec 14:40:47 14:48:50 56° 59° (ENE) 14:56:56 29.400- 29.500
HORYU 2 23 Dec 14:44:51 14:49:21 82° 73° (ENE) 14:53:53 437.375
SPROUT 23 Dec 14:47:34 14:49:43 14° 305° (NW) 14:51:52 437.525
BEESAT 3 23 Dec 14:57:55 15:01:41 33° 326° (NW) 15:05:30 437.485
Oscar 19 23 Dec 15:02:34 15:04:00 11° 277° (W) 15:05:27 437.125/150
M-CUBED/EXP-1 PRIME 23 Dec 15:07:32 15:11:58 72° 109° (ESE) 15:15:59 437.505
PCSat 23 Dec 15:07:35 15:12:51 50° 316° (NW) 15:18:10 145.827
SWISSCUBE 23 Dec 15:10:54 15:15:18 37° 295° (WNW) 15:19:40 437.505
ITUPSAT 1 23 Dec 15:12:43 15:17:09 39° 295° (WNW) 15:21:34 437.325
AIST 1 23 Dec 15:16:03 15:17:56 13° 81° (E) 15:19:49
ITAMSAT 1 23 Dec 15:23:15 15:26:36 17° 272° (W) 15:29:57 435.822/435.867
AIST 2 23 Dec 15:23:18 15:27:20 39° 323° (NW) 15:31:25 435.215
STARS 23 Dec 15:34:39 15:39:06 71° 103° (ESE) 15:43:33 437.465
BEESAT 23 Dec 15:35:32 15:39:30 26° 300° (WNW) 15:43:26 436.000
Gurwin Techsat 1B 23 Dec 15:36:44 15:40:42 21° 271° (W) 15:44:40 435.225
RS-15 23 Dec 15:40:50 15:51:10 44° 348° (NNW) 16:01:48 29.354- 29.394
BEESAT 2 23 Dec 15:41:46 15:45:05 22° 334° (NNW) 15:48:25 435.950
ISS 23 Dec 15:42:32 15:45:51 88° 171° (S) 15:49:09 145.825
KKS-1 23 Dec 15:45:33 15:50:01 67° 289° (WNW) 15:54:27 437.445
CUTE-I 23 Dec 15:57:17 16:00:20 16° 50° (NE) 16:03:24 437.470
GONETS M04 23 Dec 16:09:19 16:18:01 59° 72° (ENE) 16:26:34
JAS-2 23 Dec 16:11:04 16:18:23 69° 70° (ENE) 16:24:55 435.910
AUBIESAT-1 23 Dec 16:14:37 16:18:32 32° 303° (WNW) 16:22:10 437.475
HORYU 2 23 Dec 16:24:09 16:26:37 14° 272° (W) 16:29:06 437.375
